[[{"header":{"parameterUnit":"m.s-1","parameterCategory":1,"la1":30.2991,"la2":30.254,"lo1":-89.0895,"lo2":-89.0444,"dy":0.0017,"dx":0.0017,"nx":28,"ny":28,"refTime":"2025-04-09T03:00:00:Z","depth":0,"parameterNumber":2,"parameterNumberName":"U-component_of_WINDS"},"data":[0,0,0,0,0,0,0,0,0,0,0,0,0,0,0,0,0,0,0,0,0,0,0,0,0,0,0,0,0,0,0,0,0,0,0,0,0,0,0,0,0,0,0,0,0,0,0,0,0,0,0,0,0,0,0,0,0,0,2.4908,2.491,0,2.5121,2.5123,2.5125,2.5188,2.5187,2.5185,2.5184,2.5407,2.5414,2.5421,0,0,0,0,0,0,0,0,0,0,0,0,0,2.4561,2.4567,2.4908,2.491,2.4913,2.512,2.5123,2.5126,2.5188,2.5187,2.5185,2.5184,2.5405,2.5413,2.5421,0,0,0,0,0,0,0,0,0,0,0,0,0,2.4736,2.4569,2.4907,2.4969,2.4976,2.512,2.5123,2.5127,2.5188,2.5186,2.5185,2.5183,2.5402,2.5412,2.5423,2.5521,0,0,2.5455,2.5459,0,0,0,0,0,0,0,0,2.4726,2.4749,2.4957,2.4965,2.4974,2.5126,2.5083,2.5259,2.5189,2.5108,2.5184,2.5182,2.5315,2.5333,2.5377,2.5532,2.5541,2.5456,2.5462,2.5466,2.5469,0,0,0,0,0,0,0,2.4714,2.474,2.4992,2.496,2.497,2.4988,2.5011,2.5116,2.5219,2.5115,2.512,2.5144,2.5319,2.5366,2.5382,2.5545,2.5455,2.5465,2.5471,2.5475,2.5794,2.5796,0,0,0,0,0,0,2.4691,2.473,2.4985,2.4998,2.4843,2.4995,2.5021,2.5079,2.5218,2.5237,2.5145,2.5146,2.5349,2.537,2.539,2.5515,2.5466,2.5476,2.5482,2.5791,2.5794,2.5796,0,0,0,0,0,0,2.4683,2.4713,2.4977,2.4866,2.49,2.5003,2.5067,2.5084,2.5131,2.5241,2.526,2.5174,2.5349,2.5376,2.5488,2.5524,2.5481,2.549,2.5789,2.5792,2.5795,2.5766,0,0,0,0,0,0,2.4673,2.471,2.4747,2.4866,2.4906,2.5069,2.507,2.5089,2.5148,2.5151,2.5272,2.5291,2.5349,2.5472,2.5499,2.5538,2.5499,2.5786,2.579,2.5794,2.5764,2.5768,2.5771,0,0,0,0,0,2.466,2.4731,2.4748,2.4779,2.4954,2.5071,2.5094,2.5159,2.515,2.5189,2.5261,2.5287,2.5516,2.5483,2.5514,2.5556,2.5784,2.5789,2.5794,2.5762,2.5767,2.5771,0,0,0,0,0,0,2.4614,2.4747,2.4768,2.4879,2.4963,2.5081,2.5132,2.5161,2.525,2.525,2.5328,2.5355,2.5462,2.5521,2.5482,2.566,2.5651,2.5662,2.5617,2.5622,2.5625,2.5608,2.5507,0,0,0,0,0,2.4616,2.4698,2.4811,2.4898,2.4939,2.5028,2.5082,2.5124,2.5215,2.5251,2.5331,2.5419,2.5512,2.557,2.5661,2.5774,2.5802,2.5818,2.5822,2.5824,2.5832,2.5897,2.5906,2.5813,2.5812,2.5812,0,0,2.4623,2.4706,2.4753,2.4891,2.4961,2.5046,2.5058,2.5147,2.5211,2.5266,2.5376,2.5438,2.5542,2.5655,2.5709,2.5708,2.5864,2.583,2.5831,2.5838,2.5903,2.5911,2.5919,2.5816,2.5815,2.5815,0,0,2.4677,2.4748,2.4828,2.4899,2.5004,2.5063,2.5083,2.5197,2.524,2.5352,2.5395,2.5474,2.5631,2.5703,2.5761,2.5845,2.5873,2.5873,2.589,2.5952,2.596,2.5966,2.5996,2.6006,2.5882,2.5882,2.5881,0,2.4672,2.4799,2.4866,2.4953,2.5014,2.5066,2.5149,2.5215,2.5345,2.5387,2.5383,2.5582,2.5656,2.5787,2.5807,2.5852,2.5878,2.5859,2.5953,2.596,2.5968,2.5997,2.6009,2.5881,2.5881,2.5881,2.5881,0,2.4788,2.4876,2.4929,2.5052,2.5119,2.5203,2.5285,2.5345,2.5382,2.5442,2.5557,2.5648,2.5758,2.5793,2.5831,2.5931,2.5927,2.5937,2.593,2.5975,2.6004,2.6016,2.5879,2.588,2.588,2.588,0,0,2.4816,2.4977,2.4995,2.5052,2.5174,2.5244,2.5333,2.5439,2.5489,2.5579,2.5655,2.5788,2.5799,2.5864,2.5911,2.5966,2.6027,2.5971,2.5974,2.5977,2.6143,2.6133,2.6145,2.6048,2.605,2.6052,2.6134,0,2.4886,2.5043,2.5107,2.5235,2.5318,2.537,2.5448,2.5532,2.5591,2.5672,2.5739,2.5831,2.5838,2.5878,2.5935,2.6007,2.6061,2.6003,2.612,2.6124,2.6091,2.616,2.615,2.6222,2.6146,2.6148,2.6149,0,2.4986,2.5075,2.521,2.5323,2.5361,2.5428,2.5532,2.5609,2.5706,2.5746,2.5819,2.5864,2.5961,2.5948,2.6083,2.6042,2.6095,2.6138,2.6142,2.6155,2.6138,2.6173,2.6247,2.6257,2.6168,2.6166,2.6165,0,2.4993,2.5147,2.5248,2.5295,2.5429,2.5476,2.5534,2.563,2.5691,2.5783,2.5823,2.5926,2.5982,2.6061,2.6133,2.6117,2.6261,2.6255,2.6298,2.6296,2.6324,2.6321,2.6406,2.636,2.636,2.636,2.6359,0,2.5062,2.5143,2.5252,2.5314,2.5407,2.5482,2.5573,2.5635,2.572,2.5797,2.585,2.5922,2.6013,2.6096,2.6154,2.6257,2.6283,2.6318,2.6332,2.6312,2.6308,2.6347,2.6343,2.6363,2.6362,2.6361,2.6361,0,2.5084,2.516,2.5274,2.5392,2.5424,2.5487,2.5589,2.5653,2.5715,2.5812,2.5839,2.5938,2.6039,2.6119,2.6252,2.6291,2.6399,2.6416,2.6365,2.6372,2.641,2.6405,2.6523,2.6542,2.6483,2.6483,2.6484,0,2.5122,2.5185,2.531,2.5365,2.5422,2.5509,2.5571,2.5649,2.5711,2.5828,2.5878,2.5983,2.6071,2.6231,2.6315,2.6418,2.6436,2.647,2.6452,2.643,2.6436,2.6431,2.6438,2.6472,2.6472,2.6472,2.6472,0,2.5182,2.5217,2.5303,2.5404,2.5476,2.5559,2.5644,2.5686,2.5779,2.5847,2.595,2.6018,2.6154,2.6258,2.6369,2.6432,2.6468,2.6478,2.6493,2.6473,2.6441,2.6458,2.637,2.6474,2.6474,2.6474,2.6474,2.6474,2.5213,2.5272,2.5369,2.5464,2.5536,2.5614,2.5679,2.575,2.5837,2.5952,2.5993,2.61,2.6199,2.6352,2.6415,2.6501,2.6504,2.6526,2.6531,2.6535,2.6532,2.6428,2.6522,2.6522,2.6522,2.6522,2.6522,0,2.5275,2.534,2.5427,2.5543,2.5618,2.5645,2.5741,2.5803,2.5895,2.5983,2.6069,2.6188,2.629,2.6383,2.649,2.6541,2.656,2.6566,2.6562,2.6576,2.6524,2.65,2.6549,2.6548,2.6548,2.6548,2.6548,2.6548,2.5315,2.5417,2.5464,2.5602,2.5668,2.5771,2.5823,2.5897,2.5967,2.6098,2.6182,2.6242,2.6333,2.6447,2.6542,2.6567,2.6604,2.6605,2.6634,2.6584,2.658,2.6576,2.6554,2.6613,2.6613,2.6679,2.668,2.668]},{"header":{"parameterUnit":"m.s-1","parameterCategory":1,"la1":30.2991,"la2":30.254,"lo1":-89.0895,"lo2":-89.0444,"dy":0.0017,"dx":0.0017,"nx":28,"ny":28,"refTime":"2025-04-09T03:00:00:Z","depth":0,"parameterNumber":3,"parameterNumberName":"V-component_of_WINDS"},"data":[0,0,0,0,0,0,0,0,0,0,0,0,0,0,0,0,0,0,0,0,0,0,0,0,0,0,0,0,0,0,0,0,0,0,0,0,0,0,0,0,0,0,0,0,0,0,0,0,0,0,0,0,0,0,0,0,0,0,3.8728,3.8732,0,3.9027,3.903,3.9033,3.9115,3.9113,3.9111,3.911,3.9407,3.9416,3.9426,0,0,0,0,0,0,0,0,0,0,0,0,0,3.8221,3.823,3.8728,3.8732,3.8736,3.9026,3.903,3.9034,3.9115,3.9113,3.9111,3.9109,3.9404,3.9415,3.9427,0,0,0,0,0,0,0,0,0,0,0,0,0,3.8472,3.8233,3.8727,3.8811,3.8822,3.9025,3.903,3.9035,3.9115,3.9113,3.911,3.9108,3.94,3.9414,3.9428,3.9568,0,0,3.9472,3.9478,0,0,0,0,0,0,0,0,3.8458,3.8491,3.8795,3.8806,3.8818,3.9031,3.8961,3.9213,3.9116,3.9003,3.9109,3.9107,3.9283,3.9307,3.9369,3.9581,3.9594,3.9473,3.9482,3.9488,3.9492,0,0,0,0,0,0,0,3.8441,3.8479,3.8846,3.8799,3.8813,3.8831,3.8864,3.9009,3.9154,3.9013,3.902,3.9054,3.9289,3.9355,3.9376,3.9599,3.9473,3.9485,3.9494,3.95,3.9941,3.9944,0,0,0,0,0,0,3.841,3.8464,3.8836,3.8855,3.8628,3.8843,3.8879,3.8965,3.9153,3.9179,3.9056,3.9057,3.9331,3.9359,3.9387,3.9564,3.9488,3.9501,3.9509,3.9938,3.9942,3.9945,0,0,0,0,0,0,3.8399,3.8442,3.8824,3.8661,3.8711,3.8854,3.8949,3.8972,3.9038,3.9185,3.9211,3.9097,3.933,3.9367,3.9523,3.9575,3.9508,3.952,3.9934,3.9939,3.9944,3.9917,0,0,0,0,0,0,3.8384,3.8438,3.8494,3.8662,3.872,3.8958,3.8953,3.898,3.9063,3.9067,3.923,3.9255,3.9331,3.9501,3.9537,3.9593,3.9532,3.993,3.9937,3.9942,3.9914,3.992,3.9925,0,0,0,0,0,3.8366,3.8473,3.8497,3.8541,3.8793,3.896,3.8993,3.9081,3.9067,3.9124,3.9218,3.925,3.9563,3.9516,3.9557,3.9619,3.9927,3.9935,3.9942,3.9911,3.9919,3.9925,0,0,0,0,0,0,3.8304,3.8496,3.8525,3.869,3.8809,3.8974,3.9048,3.9086,3.9209,3.9208,3.9309,3.9345,3.9494,3.9572,3.9516,3.9764,3.9745,3.9761,3.9708,3.9717,3.9722,3.9701,3.9543,0,0,0,0,0,3.831,3.8433,3.8593,3.8723,3.8781,3.8904,3.898,3.9038,3.9164,3.9214,3.932,3.9438,3.9564,3.9644,3.9768,3.9925,3.9961,3.9987,3.9993,3.9997,4.0009,4.0099,4.0112,3.9969,3.9969,3.9969,0,0,3.8323,3.8443,3.8514,3.8713,3.8812,3.8935,3.8946,3.9074,3.9166,3.9232,3.9388,3.9469,3.9608,3.9765,3.984,3.9835,4.0057,4.0006,4.0008,4.0019,4.0107,4.0121,4.0133,3.9974,3.9973,3.9972,0,0,3.841,3.8513,3.8634,3.8733,3.8884,3.8965,3.8993,3.9154,3.9212,3.9369,3.9422,3.953,3.9744,3.9842,3.9919,4.0043,4.0076,4.008,4.0111,4.0197,4.0208,4.0218,4.0263,4.0278,4.0092,4.0092,4.0092,0,3.8407,3.8596,3.869,3.8818,3.8903,3.8972,3.9094,3.9185,3.9366,3.9423,3.9415,3.9686,3.9784,3.9965,3.9996,4.0056,4.0091,4.0062,4.0199,4.0211,4.0222,4.0266,4.0282,4.0091,4.0091,4.0091,4.0091,0,3.8585,3.8715,3.8793,3.8971,3.9065,3.9189,3.93,3.9384,3.9433,3.9514,3.9673,3.9794,3.9943,3.999,4.0038,4.0179,4.0171,4.018,4.0164,4.0234,4.0276,4.0294,4.0091,4.0091,4.0091,4.0091,0,0,3.8642,3.8871,3.8898,3.898,3.9151,3.9252,3.9377,3.9527,3.9597,3.9719,3.9827,4.0006,4.0016,4.0104,4.0163,4.0238,4.0329,4.0238,4.0243,4.0252,4.0492,4.0485,4.0503,4.0352,4.0356,4.0359,4.048,0,3.8751,3.8982,3.907,3.9258,3.9379,3.9446,3.9555,3.9671,3.975,3.9862,3.9948,4.0075,4.0078,4.0131,4.0208,4.0302,4.0379,4.0294,4.0452,4.0456,4.0416,4.0525,4.0519,4.0628,4.0498,4.0501,4.0503,0,3.8909,3.9037,3.9237,3.9395,3.9449,3.9546,3.969,3.9797,3.9928,3.9981,4.0079,4.0134,4.0266,4.0241,4.0424,4.0365,4.0434,4.049,4.0496,4.0515,4.0484,4.0547,4.0665,4.0681,4.053,4.0528,4.0526,0,3.8931,3.9153,3.9302,3.9369,3.9556,3.9623,3.9704,3.9833,3.9917,4.0042,4.0097,4.0234,4.0309,4.0413,4.0503,4.0476,4.0678,4.066,4.0724,4.0722,4.0764,4.076,4.0894,4.0807,4.0806,4.0806,4.0806,0,3.9044,3.9164,3.9315,3.9407,3.9543,3.9642,3.9773,3.9857,3.9972,4.008,4.0144,4.0243,4.0356,4.0469,4.0539,4.068,4.0713,4.0758,4.0776,4.0753,4.0748,4.0801,4.0796,4.0811,4.081,4.0809,4.0808,0,3.9092,3.9198,3.9366,3.953,3.9574,3.9667,3.9806,3.9896,3.9978,4.0114,4.0151,4.0279,4.0416,4.0516,4.0691,4.0738,4.0889,4.0906,4.0846,4.0855,4.0914,4.0907,4.1088,4.1116,4.1008,4.1008,4.1009,0,3.9158,3.9253,3.9428,3.9506,3.9588,3.9712,3.9799,3.99,3.9987,4.0145,4.0216,4.0358,4.0477,4.0691,4.0798,4.0932,4.0954,4.1007,4.0974,4.0949,4.0956,4.0949,4.0959,4.1012,4.1013,4.1013,4.1014,0,3.9264,3.9312,3.9436,3.958,3.9683,3.98,3.9917,3.9977,4.0098,4.0192,4.0335,4.0427,4.0607,4.0747,4.0892,4.0972,4.1013,4.1024,4.1046,4.1024,4.0986,4.1009,4.086,4.1019,4.1019,4.1018,4.1018,4.1018,3.9324,3.9411,3.9549,3.9686,3.9785,3.9894,3.9988,4.0083,4.0204,4.0361,4.0412,4.0559,4.0688,4.0888,4.0969,4.1084,4.1082,4.1114,4.1122,4.1129,4.1128,4.0967,4.111,4.111,4.111,4.111,4.111,0,3.9433,3.9526,3.9651,3.9815,3.9922,3.9954,4.0086,4.0173,4.0302,4.042,4.0537,4.07,4.0835,4.0953,4.1094,4.1163,4.1185,4.1196,4.1192,4.121,4.1121,4.1088,4.1176,4.1176,4.1176,4.1176,4.1176,4.1176,3.9503,3.9654,3.9718,3.9918,4.0009,4.0156,4.0228,4.0328,4.0424,4.0604,4.0718,4.0795,4.0913,4.1063,4.1188,4.1219,4.1268,4.1275,4.131,4.1224,4.1216,4.1209,4.1179,4.1284,4.1284,4.1391,4.1391,4.1392]}]]